Location: Assche-ter-Heiden
(50.9174°N, 4.1574°E)
Time: 04:50:58
(UTC+00:00)

STARLINK-53 - Pass Details

Date: 20 January 2020
Orbit: 528 x 531 km, 53.0° (Epoch: 26 February)

Event Time Altitude Azimuth Distance (km) Brightness Sun altitude
Rises 06:50:26 0° 242° (WSW) 2,663 6.7 -7.2°
Reaches altitude 10° 06:52:39 10° 240° (WSW) 1,776 5.9 -6.8°
Maximum altitude 06:56:40 73° 156° (SSE) 559 3.8 -6.3°
Drops below altitude 10° 07:00:42 10° 72° (ENE) 1,783 7.0 -5.7°
Sets 07:02:55 0° 71° (ENE) 2,675 7.9 -5.4°
